Location: *
(51.1248°S, 108.4023°W)
Time: 05:31:42
(UTC+00:00)

Lacrosse 5 - Pass Details

Date: 15 June 2021
Orbit: 715 x 724 km, 57.0° (Epoch: 28 July)

Event Time Altitude Azimuth Distance (km) Brightness Sun altitude
Exits shadow 12:47:23 40° 209° (SSW) 1,077 2.4 -22.1°
Maximum altitude 12:48:13 44° 183° (S) 1,022 2.5 -21.9°
Drops below altitude 10° 12:53:10 10° 111° (ESE) 2,242 5.2 -21.2°
Sets 12:55:40 0° 104° (ESE) 3,161 6.3 -20.8°
